Theta_e
319 316 315 314 315 317 318 324 324 323 315 312 310 310 308 308 310 310 310 310 310 311 311 311 311 312 312 312 311 313 323 327 329 332 329 330 330 330 329 328 328 327 326 327
318 317 313 313 315 317 318 320 321 321 319 316 312 310 309 308 308 308 309 309 309 309 310 310 311 311 311 312 314 314 315 321 326 329 327 326 326 326 325 325 324 323 323 321
315 315 314 315 316 318 318 319 316 319 321 317 317 318 314 308 307 307 308 308 308 308 308 308 309 311 311 312 312 315 318 320 323 326 324 323 322 321 320 318 315 314 313 313
312 311 315 316 316 317 320 318 315 320 323 323 319 324 318 309 306 305 306 306 306 306 306 306 307 308 308 309 310 311 311 312 313 314 316 313 311 310 309 309 308 308 308 308
312 311 312 316 317 316 319 316 316 317 317 318 319 322 317 311 310 306 304 305 304 303 303 304 304 304 305 306 307 307 308 308 308 308 308 307 307 305 304 304 303 303 303 302
310 311 309 310 313 316 318 319 317 317 319 321 319 318 312 314 311 306 304 304 303 302 301 302 301 302 302 302 302 303 303 303 303 303 302 302 302 301 301 301 301 300 300 300
312 312 311 310 316 317 319 320 319 320 321 318 315 317 312 307 306 304 303 303 302 301 301 300 300 300 300 300 300 300 300 300 300 300 300 299 299 299 299 299 298 298 298 297
314 314 312 309 315 320 320 320 318 319 318 316 315 319 309 304 304 303 303 303 301 300 300 300 299 299 299 299 299 299 299 299 299 298 298 298 298 298 297 297 297 297 297 296
315 313 311 310 311 316 318 319 313 312 307 316 315 306 304 302 301 302 302 302 301 300 299 299 299 299 298 298 298 298 298 298 297 297 297 297 297 296 296 296 296 296 296 296
310 314 312 312 311 312 316 312 317 314 315 317 312 306 307 302 302 300 301 301 301 300 299 298 298 298 298 297 297 296 296 296 296 296 296 296 296 296 296 296 296 296 296 296
309 311 312 312 310 311 310 313 312 312 313 313 312 310 303 304 302 300 300 301 301 300 298 298 297 297 297 296 296 296 295 296 296 296 296 296 296 296 296 295 295 295 295 294
310 310 313 312 308 307 311 311 310 312 313 310 310 308 300 303 301 300 299 301 301 300 298 298 297 297 296 296 295 294 295 295 295 295 295 295 295 295 295 295 294 294 294 293
308 310 311 311 309 309 312 312 311 309 307 310 310 306 299 300 299 299 299 300 300 300 298 298 298 297 296 295 294 294 294 294 294 294 294 294 294 294 294 294 293 292 291 290
305 304 309 310 308 308 311 311 310 309 307 308 307 303 299 299 299 298 299 300 300 300 299 299 298 297 296 294 293 293 294 294 294 294 294 294 294 294 293 293 291 290 289 289
303 302 302 300 300 307 310 311 311 310 308 307 307 303 300 299 299 298 299 299 300 300 299 298 297 296 294 293 293 293 293 293 294 294 294 294 293 293 292 290 289 288 287 287
303 304 299 301 299 306 308 309 308 310 308 303 302 304 299 299 299 299 299 299 299 298 298 297 297 295 293 293 293 293 293 293 293 293 293 293 293 292 290 289 288 287 286 286
302 301 301 304 295 296 309 301 306 306 306 302 304 303 300 296 298 298 299 298 298 298 297 297 297 294 293 293 293 293 292 293 293 293 293 292 292 290 288 287 286 286 286 286
298 298 295 297 292 300 298 296 296 304 301 302 300 301 301 299 298 299 299 298 298 298 297 297 297 294 293 292 292 292 292 292 292 292 292 291 290 288 287 286 286 286 286 285
297 295 290 294 285 292 296 295 298 303 303 299 298 295 296 298 298 297 297 297 297 298 298 297 295 293 292 292 292 292 292 291 291 291 291 290 289 288 286 286 285 285 285 285
294 292 294 282 291 293 296 295 296 297 298 298 298 295 295 296 294 291 296 296 296 297 297 295 294 293 292 292 292 292 291 291 291 291 291 290 288 287 286 285 285 285 285 284
283 282 287 281 285 289 292 295 295 297 300 297 299 297 296 294 297 297 297 296 296 295 295 294 293 292 292 291 292 291 291 290 290 290 290 289 287 286 285 284 283 284 284 283
288 288 284 278 284 293 293 294 295 295 295 297 298 298 297 297 296 296 296 295 295 295 294 293 293 292 291 291 291 291 290 290 290 289 288 287 286 286 285 283 283 283 283 283
289 291 289 291 293 294 295 295 296 296 296 298 300 299 298 296 296 295 295 295 294 294 294 293 293 292 291 291 291 290 290 290 289 289 288 286 286 285 284 283 282 282 282 281
290 291 290 290 292 294 295 295 296 296 296 297 299 299 296 296 295 295 295 294 294 294 294 293 292 292 291 291 290 290 289 289 289 288 287 286 285 285 284 282 281 282 281 281
291 291 290 289 291 293 295 296 296 296 296 296 297 297 296 296 295 295 295 294 294 294 293 292 292 291 291 290 290 289 289 289 288 288 286 286 285 285 284 282 281 281 280 279
291 290 290 290 294 293 294 296 296 295 296 296 296 296 296 296 296 295 294 294 293 293 292 291 291 291 290 290 289 289 289 288 288 287 286 286 285 285 284 282 281 280 279 278
Wind_Speed
7 4 12 10 4 6 9 17 11 2 5 12 7 10 8 15 22 22 20 19 19 18 12 11 10 10 9 7 4 6 9 7 5 8 7 3 3 2 3 5 7 8 10 12
3 11 4 6 5 5 11 15 9 6 8 8 6 10 9 14 10 15 18 18 18 15 14 14 14 13 14 14 13 10 8 5 5 7 7 3 1 3 4 5 7 9 8 11
5 2 10 7 6 9 5 13 6 9 9 7 9 2 1 7 14 16 16 16 17 16 17 17 17 19 19 19 19 17 16 13 10 8 9 5 2 1 1 2 4 7 8 9
5 5 15 7 12 11 11 6 11 18 15 5 10 4 7 3 5 9 11 14 15 16 17 19 20 21 22 23 22 21 20 20 19 15 12 11 12 12 12 11 9 8 8 9
6 5 7 11 11 8 5 9 12 9 4 8 10 2 2 14 7 8 11 14 14 15 17 19 21 21 21 21 20 20 19 19 18 16 15 13 13 13 10 8 7 8 9 11
7 3 7 7 4 7 9 10 9 3 2 5 12 7 5 10 12 11 12 16 16 16 18 19 19 19 19 19 19 17 16 17 15 13 13 12 10 9 7 8 10 12 14 15
5 4 2 4 7 8 9 16 3 4 4 4 10 5 3 8 15 18 20 20 18 18 18 19 19 18 17 16 16 15 13 14 13 11 10 10 11 11 12 14 16 17 18 19
6 7 7 4 3 9 16 7 5 7 6 4 3 6 2 2 16 23 25 23 20 18 17 17 17 17 16 15 13 12 11 11 10 10 10 10 11 13 14 15 16 18 19 20
6 4 1 1 2 9 6 5 3 6 3 3 4 2 5 4 9 19 23 23 20 18 16 15 14 13 12 11 11 9 9 10 10 11 11 12 13 13 15 16 17 18 18 19
4 3 1 2 3 1 5 8 3 2 7 4 2 3 4 11 13 11 16 22 20 18 16 15 13 12 10 9 8 8 9 10 11 11 12 14 15 15 16 16 17 18 18 19
3 1 1 2 1 7 4 5 4 4 1 4 5 5 6 19 17 16 19 25 24 20 17 15 12 10 7 6 6 8 9 10 11 12 13 13 14 14 14 15 15 16 17 18
3 2 4 2 1 2 1 5 5 4 3 2 1 3 5 14 20 22 24 25 21 19 17 13 10 6 3 4 6 8 10 10 11 11 12 12 12 12 14 14 14 14 16 17
3 3 3 7 3 4 2 1 3 5 3 5 4 3 5 17 19 25 27 25 22 20 17 14 9 5 1 6 8 9 9 9 10 11 11 11 12 13 13 14 15 15 15 14
2 2 1 1 1 3 5 4 3 5 3 4 3 5 5 13 15 20 25 24 22 20 17 14 9 5 4 7 9 9 9 10 11 11 12 13 13 13 14 14 14 13 12 13
2 3 3 4 5 0 3 7 5 4 4 5 6 10 16 17 17 24 27 24 21 20 18 13 9 5 6 9 9 9 10 11 12 12 14 14 15 16 14 10 9 9 11 14
2 3 2 7 10 5 4 3 5 6 4 6 7 1 7 16 26 25 27 24 23 21 17 13 9 6 8 9 9 10 11 12 13 14 16 16 17 14 10 8 8 10 12 14
2 3 3 1 4 4 4 3 1 3 2 7 6 6 18 8 20 28 27 24 24 22 18 13 8 8 11 12 11 12 13 14 15 16 16 16 15 11 8 7 7 9 11 14
3 4 3 2 4 2 4 2 2 2 1 3 2 8 19 20 20 25 21 20 18 18 17 13 10 12 14 12 13 13 14 15 16 16 16 15 13 10 8 7 8 10 13 17
3 4 3 4 2 4 3 4 4 4 5 3 6 7 17 23 20 12 15 14 14 16 15 13 13 15 14 14 14 14 15 16 18 18 18 15 12 11 10 10 11 13 16 19
4 6 4 3 5 5 3 2 3 3 4 10 13 16 21 21 5 5 17 15 13 14 14 14 15 16 15 15 15 15 17 19 20 19 19 17 15 13 13 13 14 16 19 22
4 4 4 1 1 6 5 4 4 6 5 7 23 30 28 7 8 13 15 14 12 12 14 15 16 16 16 16 16 17 19 20 20 20 19 17 16 15 14 15 17 19 21 24
4 4 1 3 4 5 8 4 6 3 1 13 21 28 26 15 14 14 11 9 10 13 14 15 16 16 17 17 17 18 21 21 20 19 18 18 17 16 17 18 19 21 23 25
2 5 3 6 5 3 16 3 9 4 5 15 22 24 23 20 16 11 8 9 11 12 14 16 17 18 18 17 18 20 21 21 20 20 19 18 18 18 18 19 21 23 24 26
4 5 2 3 3 11 11 14 11 6 5 10 17 21 23 19 15 11 9 11 14 15 16 17 18 18 17 18 20 21 21 19 20 19 18 18 19 19 19 21 23 24 24 27
5 10 5 4 8 6 16 20 18 15 10 11 15 20 24 20 17 14 14 15 15 16 18 18 18 17 18 20 21 21 20 20 20 19 18 19 20 20 21 22 23 23 24 27
13 7 5 6 11 12 5 21 21 24 21 17 18 22 23 22 20 18 19 17 17 18 18 18 17 18 19 22 22 22 21 21 20 20 19 20 21 21 23 23 22 22 24 26
Wind_Direction
186 161 208 194 159 125 148 179 205 183 103 69 71 78 54 63 84 87 89 88 84 81 83 88 86 90 94 105 139 206 222 223 204 155 112 181 226 197 284 304 321 336 336 330
155 225 187 167 218 174 166 177 169 122 128 84 64 72 59 52 66 89 98 93 91 95 93 89 91 94 90 88 87 92 110 136 150 153 134 163 270 312 344 344 322 322 319 322
191 246 173 185 186 206 196 178 174 140 131 77 119 320 60 70 79 88 86 93 93 96 97 94 94 92 93 90 86 86 87 91 100 120 123 122 104 140 193 7 33 38 35 32
239 261 185 181 205 198 201 164 144 143 156 173 173 181 190 153 99 83 94 97 98 104 102 101 98 94 91 88 90 89 90 91 91 96 111 107 99 89 70 62 51 42 33 22
212 197 177 198 194 176 194 106 133 149 128 119 184 151 206 155 177 154 129 113 112 108 108 103 100 97 96 96 93 91 90 89 88 88 86 83 81 76 70 62 46 28 16 7
203 226 179 200 156 187 142 92 60 87 45 209 183 178 194 186 180 157 147 139 134 126 117 109 105 104 99 98 96 93 91 88 83 77 74 68 61 53 33 17 5 1 357 354
181 196 248 178 119 154 137 144 133 180 191 240 162 167 217 200 167 161 155 148 142 133 127 120 118 111 105 97 90 84 81 80 68 59 50 39 28 17 9 1 356 350 347 345
165 202 184 188 203 177 167 166 156 186 171 159 173 212 278 138 148 148 154 148 144 139 133 127 120 115 109 101 90 79 69 65 56 41 33 23 12 3 359 354 350 346 345 345
188 222 275 174 136 163 175 190 59 102 32 109 139 10 360 72 117 138 147 150 145 141 136 127 121 112 102 94 80 64 46 36 26 16 8 1 358 354 353 350 347 345 344 343
193 159 310 147 125 54 182 128 102 65 159 173 144 205 205 182 172 161 156 154 151 148 144 138 132 118 100 79 57 33 18 6 5 359 354 354 351 348 346 343 340 340 339 339
155 4 273 154 164 166 144 178 133 105 305 134 139 243 202 182 180 169 164 162 160 157 153 147 136 122 99 63 29 6 355 352 349 351 347 344 339 338 336 335 335 335 336 335
108 153 189 159 102 284 273 158 145 124 183 51 121 237 319 176 169 161 162 166 165 161 156 151 143 128 92 15 355 347 345 347 344 342 336 332 331 333 334 332 335 338 337 341
107 229 140 136 33 335 162 132 116 91 78 170 151 249 31 138 148 164 163 166 165 162 162 164 168 171 279 334 340 343 336 333 332 333 329 329 332 333 333 336 337 340 346 342
192 57 118 162 259 135 143 137 118 125 115 163 195 159 172 160 160 161 166 167 167 170 174 175 183 207 293 318 324 329 331 333 335 332 328 328 328 333 332 336 342 346 349 354
147 104 98 82 327 53 124 150 145 97 148 152 190 175 191 177 164 166 168 168 170 177 181 187 203 234 304 314 320 324 329 326 325 325 325 326 329 331 332 336 342 351 356 358
5 118 83 36 10 44 77 109 133 120 120 83 124 275 132 158 163 168 173 174 180 184 189 200 217 262 298 304 307 310 313 317 319 320 321 321 322 322 323 329 338 348 352 351
350 117 55 46 352 23 110 247 117 146 150 146 167 203 154 159 171 174 177 183 187 194 200 212 233 277 299 298 300 306 310 312 314 315 313 311 309 304 301 308 327 337 341 343
106 69 34 147 7 48 243 287 317 124 118 177 107 162 174 172 172 180 186 188 195 204 211 221 245 282 291 290 294 300 304 308 309 309 307 305 295 283 282 294 314 328 335 336
37 121 81 125 153 282 316 224 174 162 248 204 138 111 131 137 147 162 183 193 206 212 217 234 261 286 288 291 292 292 299 305 307 308 304 299 290 281 282 295 310 319 323 325
54 56 104 57 122 179 251 211 176 106 313 188 160 149 142 143 147 227 195 199 206 211 227 251 277 288 287 286 285 292 300 306 306 303 302 297 287 280 281 292 302 310 317 321
3 4 113 92 124 289 242 197 135 99 235 188 176 165 160 157 187 181 170 185 206 234 254 268 279 281 280 283 287 295 297 300 301 300 295 286 278 274 279 291 298 306 311 316
158 121 200 75 55 292 180 121 166 211 251 180 178 174 175 175 162 165 181 211 246 259 260 271 281 282 284 284 287 293 298 299 299 297 291 283 276 274 281 290 296 303 309 312
316 182 188 179 215 245 190 195 195 193 176 176 184 186 186 177 174 180 207 243 264 263 266 281 284 282 283 284 289 294 298 298 296 292 285 279 275 275 283 291 297 301 307 314
242 198 194 60 239 232 218 219 206 188 189 193 197 193 191 191 195 216 254 272 271 264 272 281 281 283 280 283 288 291 291 295 295 291 285 279 276 279 288 294 297 302 310 315
205 152 180 264 266 277 236 221 214 205 201 203 200 203 202 208 220 246 271 275 267 270 277 278 280 280 280 282 287 288 290 291 290 287 283 280 279 281 288 293 298 304 312 316
190 182 174 217 220 193 218 219 219 221 223 219 213 210 216 229 244 260 272 267 266 276 277 276 276 278 285 286 288 285 284 286 286 286 283 280 281 285 290 294 298 303 309 310